Overview Statistics Trail Chart Weather Telemetry Raw packets
 

This is the latest recevied weather packets stored in our database for station/object WX6HNX-6. If no packets are shown the sender has not sent any weather packets the latest 10 day(s).

<< 19 20 21 22 23 24 25 >>
Time Temp. Humidity Pressure Rain* Wind** Luminosity Snow
1777673490 33.33° C 23% 1011.2 hPa 0 mm - - -
1777672890 32.22° C 23% 1011.4 hPa 0 mm - - -
1777672590 32.22° C 25% 1011.5 hPa 0 mm - - -
1777672290 32.22° C 26% 1011.6 hPa 0 mm - - -
1777671991 32.22° C 26% 1011.6 hPa 0 mm - - -
1777671390 31.67° C 29% 1011.6 hPa 0 mm - - -
1777671090 31.11° C 30% 1011.7 hPa 0 mm - - -
1777670791 31.11° C 31% 1011.7 hPa 0 mm - - -
1777670490 30.56° C 33% 1011.8 hPa 0 mm - - -
1777670190 30.56° C 32% 1012 hPa 0 mm - - -
1777669891 31.11° C 32% 1011.9 hPa 0 mm - - -
1777669590 31.11° C 33% 1012 hPa 0 mm - - -
1777669291 31.11° C 30% 1012 hPa 0 mm - - -
1777668690 30.56° C 30% 1012 hPa 0 mm - - -
1777668390 31.11° C 29% 1012.1 hPa 0 mm - - -
1777667790 30.56° C 30% 1012.2 hPa 0 mm - - -
1777667190 30° C 32% 1012.3 hPa 0 mm - - -
1777666891 30° C 32% 1012.3 hPa 0 mm - - -
1777666590 30° C 33% 1012.4 hPa 0 mm - - -
1777666291 30° C 31% 1012.4 hPa 0 mm - - -
1777665747 29.44° C 32% 1012.5 hPa 0 mm - - -
1777665448 29.44° C 33% 1012.5 hPa 0 mm - - -
1777665147 28.89° C 34% 1012.5 hPa 0 mm - - -
1777664847 28.33° C 34% 1012.7 hPa 0 mm - - -
1777664370 28.33° C 33% 1012.8 hPa 0 mm - - -

* Rain latest hour (hover to see other rain measurements)
** Current wind speed in m/s (hover to see current wind gust speed)